星链-36577(STARLINK-36577)

导读

STARLINK-36577是美国星链计划下的卫星,于2026年1月25日发射升空。星链项目由SpaceX主导,旨在构建全球卫星互联网星座,该卫星入轨后将补充星座网络容量,提升覆盖区域网络的带宽与稳定性,服务全球偏远地区网络接入,以及航空、航海等移动场景互联网连接。

Basic Information
目录编号:
67583
目录名称:
STARLINK-36577
国际标识:
2026-016Y
轨道中心:
EARTH
卫星名称:
星链-36577
卫星全名:
星链-36577(STARLINK-36577)
卫星状态:
在轨 (已飞行222 天)
发射日期:
2026-01-25 UTC
国别 :
美国 (US)
星等 :
--
Orbit Information
数据来源 国际轨道数据
星历时间: 2026-09-03T11:13:32+0800
1天前
查看轨道信息
半长轴: 6843.658km
偏心率: 0.0001407
轨道倾角: 97.286°
近地点辐角 102.624°
升交点赤经 305.113°
平近点角 257.517°
近地点: 464.558km
远地点: 466.484km
周期: 93.906分钟
每日圈数: 15.334527
Detailed Information
固有亮度:
5
最大亮度:
2.5
卫星平台:
Starlink V1.0
覆盖范围:
全球
运营商:
太空探索技术公司
运营商所在国:
美国
制造商(研发单位):
太空探索技术公司
制造商所在国:
美国
使用方式:
暂无
Satellite Introduction
Starlink 计划是 SpaceX 推出的全球卫星互联网项目,通过发射低轨道卫星,为全球尤其是偏远地区提供高速、低延迟的互联网服务。自 2019 年起,Starlink 已部署数千颗卫星,旨在缩小全球数字鸿沟,推动互联网普及。该项目还为军事、航空等行业提供通信支持,带来广泛经济效益。
2D Orbit Map
3D Orbit Map
Orbit Altitude Analysis Chart
Orbit Inclination Analysis Chart
Orbit Comprehensive Analysis Chart
View Comprehensive Chart
Conjunction Data List
Event ID Objects TCA Miss Dist (km) Collision Risk Probability Collision Risk Index (CRI) Action
CDM_260828-113104-832806-758321
2026-08-28T
11:31:32+0000
2.839 km
极远距离
1.186499E-6 低风险 0.36
CDM_260903-115205-481006-758321
2026-09-03T
11:52:43+0000
2.792 km
极远距离
8.657099E-7 极低风险 0.34